This demonstration page uses our WeatherBlox Daily Observations layout. Learn more.

Left ArrowRight Arrow

36.17497, -115.13722

Hourly Observations for September 18, 2016

Temp ( °F °C ) Dew Point ( °F °C ) Humidity (%) Winds ( mph kmh ) Pressure ( in mb ) Visibility ( mi km ) Precip ( " mm )
12:53 am 00:53 Clear 78 25.6 28 -2.2 16 16 W 6 9 29.96 1015 10 16.0934 0 0
1:53 am 01:53 Clear 74 23.3 28 -2.2 18 18 WSW 3 6 29.97 1015 10 16.0934 0 0
2:53 am 02:53 Clear 74 23.3 26 -3.3 17 17 WNW 8 13 29.97 1015 10 16.0934 0 0
3:53 am 03:53 Clear 73 22.8 26 -3.3 17 17 WNW 10 17 29.97 1015 10 16.0934 0 0
4:53 am 04:53 Clear 70 21.1 30 -1.1 23 23 WNW 3 6 29.98 1015 10 16.0934 0 0
5:53 am 05:53 Clear 69 20.6 30 -1.1 23 23 Calm 30 1016 10 16.0934 0 0
6:53 am 06:53 Sunny 69 20.6 27 -2.8 21 21 N 5 7 30.02 1017 10 16.0934 0 0
7:53 am 07:53 Sunny 73 22.8 29 -1.7 19 19 Calm 30.04 1017 10 16.0934 0 0
8:53 am 08:53 Sunny 80 26.7 26 -3.3 14 14 Calm 30.06 1018 10 16.0934 0 0
9:53 am 09:53 Sunny 83 28.3 27 -2.8 13 13 Calm 30.07 1018 10 16.0934 0 0
10:53 am 10:53 Sunny 87 30.6 26 -3.3 11 11 Calm 30.06 1018 10 16.0934 0 0
11:53 am 11:53 Sunny 90 32.2 25 -3.9 9 9 E 6 9 30.03 1017 10 16.0934 0 0
12:53 pm 12:53 Sunny 92 33.3 25 -3.9 9 9 S 6 9 30.01 1016 10 16.0934 0 0
1:53 pm 13:53 Sunny 94 34.4 24 -4.4 8 8 SSE 7 11 29.99 1016 10 16.0934 0 0
2:53 pm 14:53 Sunny 96 35.6 21 -6.1 6 6 S 3 6 29.96 1015 10 16.0934 0 0
3:53 pm 15:53 Sunny 98 36.7 21 -6.1 6 6 SE 8 13 29.93 1014 10 16.0934 0 0
4:53 pm 16:53 Sunny 97 36.1 21 -6.1 6 6 SE 7 11 29.91 1013 10 16.0934 0 0
5:53 pm 17:53 Sunny 97 36.1 21 -6.1 6 6 SSW 9 15 29.91 1013 10 16.0934 0 0
6:53 pm 18:53 Clear 93 33.9 22 -5.6 7 7 S 5 7 29.93 1013 10 16.0934 0 0
7:53 pm 19:53 Clear 92 33.3 22 -5.6 8 8 Calm 29.94 1014 10 16.0934 0 0
8:53 pm 20:53 Clear 86 30 24 -4.4 10 10 NW 5 7 29.96 1015 10 16.0934 0 0
9:53 pm 21:53 Clear 82 27.8 25 -3.9 12 12 NW 8 13 29.96 1015 10 16.0934 0 0
10:53 pm 22:53 Clear 79 26.1 27 -2.8 15 15 NNW 5 7 29.97 1015 10 16.0934 0 0
11:53 pm 23:53 Clear 77 25 26 -3.3 15 15 NNW 7 11 29.97 1015 10 16.0934 0 0

Powered by AerisWeather